Date String (YYYY-MM-DD hh:mm:ss) UTC,Instrument flags,Ambient pressure (hPa),Sample flow (lpm),Bypass flow (lpm),Sample temperature (°C),Ambient temperature (°C),ASC tube jacket temperature (°C),LED temperature (°C),Box temperature (°C),Sample RH (%),Span deviation,Mass concentration (μg/m³),Mass concentration (μg/m³),Mass concentration (μg/m³)
DateTimeUTC,F1_M11,P_M11,Q1_M11,Q2_M11,T1_M11,T2_M11,T3_M11,T4_M11,T5_M11,U1_M11,ZSPAN_M11,X0_M11,X2_M11,X1_M11
2021-12-07 05:00:00,,0817.6,5.00,0.00,22.1,23.0,00.0,31.0,24.0,08.7,0000.0,0029.18,0006.19,0003.58
2021-12-07 05:01:00,,0817.7,5.01,0.00,22.1,22.8,00.0,31.0,24.0,09.5,0000.0,0028.27,0005.93,0003.44
2021-12-07 05:02:00,,0817.6,4.99,0.00,22.1,22.5,00.0,31.0,23.9,09.7,0000.0,0026.84,0005.67,0003.30
2021-12-07 05:03:00,,0817.5,5.01,0.00,22.1,22.2,00.0,31.0,23.8,09.8,0000.0,0024.07,0005.38,0003.13
2021-12-07 05:04:00,,0817.6,4.99,0.00,22.1,22.0,00.0,31.0,23.7,09.8,0000.0,0022.61,0005.04,0002.87
2021-12-07 05:05:00,,0817.7,5.01,0.00,22.0,21.8,00.0,31.0,23.7,09.6,0000.0,0021.07,0004.73,0002.60
2021-12-07 05:06:00,,0817.7,5.00,0.00,22.0,21.6,00.0,31.0,23.6,08.7,0000.0,0019.66,0004.61,0002.51
2021-12-07 05:07:00,,0817.8,5.02,0.00,21.9,21.4,00.0,31.0,23.4,08.7,0000.0,0019.20,0004.55,0002.43
2021-12-07 05:08:00,,0817.7,5.00,0.00,21.8,21.3,00.0,31.0,23.3,08.6,0000.0,0019.99,0004.49,0002.34
2021-12-07 05:09:00,,0817.8,4.99,0.00,21.8,21.1,00.0,31.0,23.3,08.5,0000.0,0020.75,0004.43,0002.31
2021-12-07 05:10:00,,0817.8,5.01,0.00,21.7,21.0,00.0,30.9,23.2,08.5,0000.0,0018.82,0004.30,0002.25
2021-12-07 05:11:00,,0817.7,5.00,0.00,21.7,21.0,00.0,30.9,23.2,08.7,0000.0,0017.28,0004.28,0002.26
2021-12-07 05:12:00,,0817.7,4.99,0.00,21.7,20.9,00.0,30.9,23.2,08.8,0000.0,0018.02,0004.49,0002.44
2021-12-07 05:13:00,,0817.6,4.99,0.00,21.6,20.9,00.0,30.8,23.1,09.3,0000.0,0018.91,0004.61,0002.56
2021-12-07 05:14:00,,0817.6,4.99,0.00,21.6,21.1,00.0,30.8,23.2,09.7,0000.0,0019.65,0004.67,0002.60
2021-12-07 05:15:00,,0817.6,5.00,0.00,21.8,22.0,00.0,30.9,23.5,09.9,0000.0,0020.35,0004.70,0002.61
2021-12-07 05:16:00,,0817.7,5.01,0.00,21.9,22.9,00.0,30.9,23.9,09.8,0000.0,0020.20,0004.68,0002.59
2021-12-07 05:17:00,,0817.6,5.00,0.00,22.1,23.0,00.0,30.9,24.0,09.3,0000.0,0019.77,0004.54,0002.47
2021-12-07 05:18:00,,0817.6,5.00,0.00,22.1,22.7,00.0,31.0,24.0,09.4,0000.0,0018.40,0004.40,0002.35
2021-12-07 05:19:00,,0817.7,5.00,0.00,22.1,22.5,00.0,31.0,24.0,09.8,0000.0,0016.17,0004.14,0002.15
2021-12-07 05:20:00,,0817.7,4.99,0.00,22.2,22.3,00.0,31.0,24.0,09.7,0000.0,0014.00,0003.85,0001.93
2021-12-07 05:21:00,,0817.8,4.99,0.00,22.2,22.2,00.0,31.0,23.9,09.8,0000.0,0012.60,0003.57,0001.72
2021-12-07 05:22:00,,0817.9,5.02,0.00,22.1,22.0,00.0,31.0,23.9,09.2,0000.0,0011.98,0003.44,0001.59
2021-12-07 05:23:00,,0817.8,4.99,0.00,22.1,21.9,00.0,31.0,23.8,09.6,0000.0,0011.16,0003.33,0001.49
2021-12-07 05:24:00,,0817.8,5.01,0.00,22.1,21.7,00.0,31.1,23.8,09.8,0000.0,0010.21,0003.19,0001.35
2021-12-07 05:25:00,,0817.8,5.00,0.00,22.1,21.6,00.0,31.1,23.7,09.7,0000.0,0009.51,0003.16,0001.33
2021-12-07 05:26:00,,0817.9,4.99,0.00,22.0,21.6,00.0,31.1,23.7,10.0,0000.0,0008.52,0003.08,0001.31
2021-12-07 05:27:00,,0817.9,5.00,0.00,22.0,21.5,00.0,31.0,23.7,09.9,0000.0,0008.76,0003.06,0001.32
2021-12-07 05:28:00,,0817.9,5.01,0.00,22.0,21.4,00.0,31.0,23.6,09.2,0000.0,0009.86,0003.11,0001.37
2021-12-07 05:29:00,,0817.8,4.99,0.00,22.0,21.3,00.0,31.0,23.6,08.5,0000.0,0011.05,0003.37,0001.58
2021-12-07 05:30:00,,0817.8,5.01,0.00,22.0,21.3,00.0,31.0,23.6,08.8,0000.0,0012.56,0003.63,0001.80
2021-12-07 05:31:00,,0817.8,5.01,0.00,21.9,21.3,00.0,31.0,23.6,08.3,0000.0,0015.69,0004.04,0002.05
2021-12-07 05:32:00,,0817.9,5.01,0.00,21.9,21.3,00.0,31.0,23.6,08.0,0000.0,0018.46,0004.44,0002.31
2021-12-07 05:33:00,,0817.8,4.99,0.00,21.9,21.3,00.0,31.0,23.6,08.2,0000.0,0020.98,0004.83,0002.51
2021-12-07 05:34:00,,0817.8,5.00,0.00,21.9,21.3,00.0,31.0,23.6,08.2,0000.0,0023.60,0005.01,0002.67
2021-12-07 05:35:00,,0817.8,5.00,0.00,21.9,21.3,00.0,31.0,23.6,08.1,0000.0,0026.09,0005.45,0002.96
2021-12-07 05:36:00,,0817.8,5.00,0.00,21.9,21.3,00.0,31.0,23.6,08.7,0000.0,0028.24,0005.70,0003.13
2021-12-07 05:37:00,,0817.8,5.00,0.00,21.9,21.3,00.0,31.0,23.6,08.9,0000.0,0030.35,0005.90,0003.22
2021-12-07 05:38:00,,0817.6,4.99,0.00,21.9,21.5,00.0,31.0,23.6,09.6,0000.0,0030.74,0006.05,0003.26
2021-12-07 05:39:00,,0817.6,5.00,0.00,22.1,22.2,00.0,31.0,23.9,10.3,0000.0,0029.02,0005.90,0003.19
2021-12-07 05:40:00,,0817.8,5.01,0.00,22.2,23.1,00.0,31.1,24.2,09.7,0000.0,0027.92,0005.58,0002.98
2021-12-07 05:41:00,,0817.8,4.99,0.00,22.3,23.2,00.0,31.1,24.3,08.3,0000.0,0028.51,0005.70,0002.98
2021-12-07 05:42:00,,0817.7,4.99,0.00,22.4,22.9,00.0,31.1,24.3,08.8,0000.0,0026.77,0005.56,0002.91
2021-12-07 05:43:00,,0817.7,5.01,0.00,22.4,22.6,00.0,31.2,24.2,09.8,0000.0,0024.26,0005.17,0002.64
2021-12-07 05:44:00,,0817.6,5.00,0.00,22.3,22.4,00.0,31.2,24.1,09.8,0000.0,0022.54,0004.69,0002.37
2021-12-07 05:45:00,,0817.6,5.00,0.00,22.3,22.2,00.0,31.2,24.0,09.9,0000.0,0019.56,0004.37,0002.14
2021-12-07 05:46:00,,0817.6,5.00,0.00,22.3,22.1,00.0,31.2,24.0,09.9,0000.0,0017.61,0003.99,0001.88
2021-12-07 05:47:00,,0817.6,5.01,0.00,22.3,21.9,00.0,31.2,24.0,10.1,0000.0,0016.04,0003.62,0001.60
2021-12-07 05:48:00,,0817.7,4.99,0.00,22.3,21.8,00.0,31.2,23.9,09.9,0000.0,0013.81,0003.45,0001.44
2021-12-07 05:49:00,,0817.7,5.01,0.00,22.2,21.7,00.0,31.2,23.9,09.6,0000.0,0013.36,0003.36,0001.40
2021-12-07 05:50:00,,0817.7,5.00,0.00,22.2,21.6,00.0,31.2,23.9,09.6,0000.0,0013.41,0003.43,0001.48
2021-12-07 05:51:00,,0817.6,4.99,0.00,22.2,21.6,00.0,31.2,23.8,09.8,0000.0,0014.36,0003.52,0001.57
2021-12-07 05:52:00,,0817.6,5.01,0.00,22.2,21.5,00.0,31.2,23.8,10.1,0000.0,0013.31,0003.22,0001.40
2021-12-07 05:53:00,,0817.6,4.99,0.00,22.1,21.4,00.0,31.2,23.8,10.2,0000.0,0014.16,0002.80,0001.20
2021-12-07 05:54:00,,0817.5,5.01,0.00,22.1,21.3,00.0,31.2,23.8,10.2,0000.0,0015.28,0002.77,0001.15
2021-12-07 05:55:00,,0817.6,5.00,0.00,22.1,21.3,00.0,31.2,23.7,10.4,0000.0,0014.22,0002.87,0001.13
2021-12-07 05:56:00,,0817.7,5.01,0.00,22.1,21.3,00.0,31.1,23.6,10.2,0000.0,0014.20,0002.89,0001.11
2021-12-07 05:57:00,,0817.7,5.00,0.00,22.1,21.7,00.0,31.2,23.8,09.9,0000.0,0013.90,0003.04,0001.16
2021-12-07 05:58:00,,0817.8,5.00,0.00,22.2,22.6,00.0,31.2,24.1,09.8,0000.0,0014.59,0003.18,0001.24
2021-12-07 05:59:00,,0817.8,5.00,0.00,22.4,23.3,00.0,31.3,24.4,08.9,0000.0,0015.90,0003.44,0001.45
